This is the latest recevied weather packets stored in our database for station/object DL3NDS-WX. If no packets are shown the sender has not sent any weather packets the latest 1 day(s).
| Time | Temp. | Humidity | Pressure | Rain* | Wind** | Luminosity | Snow |
|---|---|---|---|---|---|---|---|
| 1778071400 | 17.22° C | 62% | 1007.7 hPa | 0 mm | - | 264 W/m² | - |
| 1778071094 | 17.22° C | 63% | 1007.6 hPa | 0 mm | - | 274 W/m² | - |
| 1778071032 | 17.22° C | 63% | 1007.6 hPa | 0 mm | - | 276 W/m² | - |
| 1778070973 | 17.22° C | 63% | 1007.7 hPa | 0 mm | - | 276 W/m² | - |
| 1778070908 | 17.22° C | 63% | 1007.6 hPa | 0 mm | - | 276 W/m² | - |
| 1778070545 | 17.22° C | 63% | 1007.7 hPa | 0 mm | - | 274 W/m² | - |
| 1778070420 | 17.78° C | 62% | 1007.7 hPa | 0 mm | - | 287 W/m² | - |
| 1778070297 | 17.78° C | 61% | 1007.7 hPa | 0 mm | - | 315 W/m² | - |
| 1778070172 | 17.78° C | 63% | 1007.7 hPa | 0 mm | - | 410 W/m² | - |
| 1778069989 | 17.78° C | 63% | 1007.7 hPa | 0 mm | - | 503 W/m² | - |
| 1778069686 | 17.78° C | 66% | 1007.9 hPa | 0 mm | - | 457 W/m² | - |
| 1778069502 | 17.22° C | 67% | 1007.8 hPa | 0 mm | - | 471 W/m² | - |
| 1778069133 | 17.22° C | 68% | 1007.9 hPa | 0 mm | - | 464 W/m² | - |
| 1778068950 | 16.67° C | 70% | 1007.9 hPa | 0 mm | - | 483 W/m² | - |
| 1778068640 | 17.22° C | 70% | 1008 hPa | 0 mm | - | 432 W/m² | - |
| 1778068578 | 17.22° C | 69% | 1008 hPa | 0 mm | - | 404 W/m² | - |
| 1778068455 | 17.22° C | 68% | 1008 hPa | 0 mm | - | 380 W/m² | - |
| 1778068273 | 17.78° C | 68% | 1008 hPa | 0 mm | - | 496 W/m² | - |
| 1778068027 | 17.78° C | 68% | 1008 hPa | 0 mm | - | 580 W/m² | - |
| 1778067965 | 17.78° C | 69% | 1008 hPa | 0 mm | - | 624 W/m² | - |
| 1778067597 | 16.67° C | 71% | 1008 hPa | 0 mm | - | 599 W/m² | - |
| 1778067352 | 17.22° C | 71% | 1008 hPa | 0 mm | - | 645 W/m² | - |
| 1778067229 | 16.67° C | 71% | 1008 hPa | 0 mm | - | 652 W/m² | - |
| 1778067168 | 16.67° C | 70% | 1008.1 hPa | 0 mm | - | 601 W/m² | - |
| 1778067107 | 16.67° C | 71% | 1008.1 hPa | 0 mm | - | 571 W/m² | - |
* Rain latest hour (hover to see other rain measurements)
** Current wind speed in m/s (hover to see current wind gust speed)